This demonstration page uses our WeatherBlox Daily Observations layout. Learn more.

Left ArrowRight Arrow

Hourly Observations for May 27, 2015

Temp ( °F °C ) Dew Point ( °F °C ) Humidity (%) Winds ( mph kmh ) Pressure ( in mb ) Visibility ( mi km ) Precip ( " mm )
12:53 am 00:53 Clear 75 23.9 66 18.9 74 74 SE 17 28 29.82 1010 10 16 0.00 0.00
1:53 am 01:53 Clear 73 22.8 66 18.9 79 79 SE 14 22 29.83 1010 10 16 0.00 0.00
2:53 am 02:53 Clear 72 22.2 67 19.4 84 84 SE 13 20 29.83 1010 8 13 0.00 0.00
3:53 am 03:53 Clear 70 21.1 66 18.9 87 87 SSE 9 15 29.83 1010 7 11 0.00 0.00
4:53 am 04:53 Clear with Mist and Fog 68 20 65 18.3 90 90 ESE 3 6 29.85 1011 6 10 0.00 0.00
5:53 am 05:53 Clear with Mist and Fog 67 19.4 65 18.3 93 93 ESE 7 11 29.85 1011 3 5 0.00 0.00
6:53 am 06:53 Sunny with Mist and Fog 67 19.4 65 18.3 93 93 ESE 8 13 29.87 1011 3 5 0.00 0.00
7:53 am 07:53 Sunny with Mist and Fog 69 20.6 66 18.9 90 90 SE 13 20 29.89 1012 4 6 0.00 0.00
8:53 am 08:53 Partly Cloudy 73 22.8 67 19.4 81 81 SE 15 24 29.91 1013 7 11 0.00 0.00
9:53 am 09:53 Sunny 77 25 65 18.3 66 66 SE 18 30 29.92 1013 10 16 0.00 0.00
10:53 am 10:53 undefined 81 27.2 65 18.3 58 58 SE 17 28 29.92 1013 10 16 0.00 0.00
11:53 am 11:53 Sunny 85 29.4 64 17.8 50 50 S 13 20 29.90 1012 10 16 0.00 0.00
12:53 pm 12:53 Sunny 87 30.6 63 17.2 45 45 SE 13 20 29.88 1012 10 16 0.00 0.00
1:53 pm 13:53 Sunny 90 32.2 62 16.7 39 39 ESE 13 20 29.85 1011 10 16 0.00 0.00
2:53 pm 14:53 Sunny 92 33.3 59 15 33 33 SE 9 15 29.83 1010 10 16 0.00 0.00
3:53 pm 15:53 Mostly Sunny 95 35 56 13.3 27 27 SE 15 24 29.81 1009 10 16 0.00 0.00
4:53 pm 16:53 Sunny 94 34.4 53 11.7 25 25 SSE 20 31 29.78 1009 10 16 0.00 0.00
5:53 pm 17:53 Mostly Sunny 92 33.3 55 12.8 29 29 SE 21 33 29.75 1008 7 11 0.00 0.00
6:16 pm 18:16 Sunny with Thunderstorms 90 32 57 14 33 33 SE 22 35 29.68 1005 10 16 0.00 0.00
6:51 pm 18:51 Mostly Cloudy with Nearby Thunderstorms 86 30 61 16 43 43 S 14 22 29.74 1007 10 16 0.00 0.03
6:53 pm 18:53 Mostly Cloudy with Nearby Thunderstorms 86 30 60 15.6 42 42 S 21 33 29.79 1009 10 16 0.00 0.03
7:09 pm 19:09 Cloudy with Light Rain 86 30 61 16.1 43 43 ESE 17 28 29.71 1006 10 16 0.00 0.03
7:35 pm 19:35 Partly Cloudy with Nearby Thunderstorms 86 30 60 15.6 42 42 ESE 20 31 29.71 1006 10 16 0.00 0.03
7:50 pm 19:50 Mostly Sunny 84 29 61 16 45 45 ESE 20 31 29.74 1007 10 16 0.00 0.00
7:53 pm 19:53 Mostly Sunny 86 30 61 16.1 43 43 ESE 15 24 29.81 1010 10 16 0.00 0.03
8:05 pm 20:05 Mostly Cloudy with Nearby Thunderstorms 85 29.4 61 16.1 45 45 ESE 18 30 29.74 1007 10 16 0.00 0.03
8:26 pm 20:26 Mostly Cloudy with Light Rain 81 27.2 64 17.8 57 57 ESE 10 17 29.77 1008 10 16 0.00 0.03
8:53 pm 20:53 Mostly Clear with Nearby Thunderstorms 82 27.8 63 17.2 53 53 ESE 16 26 29.81 1009 10 16 0.00 0.03
9:08 pm 21:08 Clear 82 28 63 17 51 51 E 16 26 29.74 1007 10 16 0.00 0.00
9:53 pm 21:53 Clear 81 27.2 64 17.8 57 57 SE 15 24 29.80 1009 10 16 0.00 0.00
10:53 pm 22:53 Clear 79 26.1 66 18.9 65 65 SE 18 30 29.82 1010 10 16 0.00 0.00
11:53 pm 23:53 Clear 77 25 64 17.8 64 64 SE 16 26 29.82 1010 10 16 0.00 0.00

Powered by AerisWeather